Theta_e
334 336 337 340 340 342 342 345 347 347 349 352 353 353 352 354 356 357 358 362 363 364 366 366 366 365 364 363 365 366 367 366 366 365 364 363 362 363 362 360 359 359 358 357 358 357 359 360 355 354 352 351 351 351 354 352 354 351 352 351 350 352 346
332 334 337 338 339 340 343 345 347 350 350 352 354 355 353 354 356 357 358 362 363 364 365 366 366 365 363 363 364 366 366 366 366 366 365 366 365 365 363 362 360 361 361 359 360 360 358 356 355 352 352 352 350 352 351 353 351 350 348 349 349 350 351
331 338 340 341 341 342 343 344 349 347 348 350 351 352 353 354 357 358 359 362 363 365 366 366 366 365 364 364 364 365 366 366 366 365 363 363 362 359 362 363 361 361 360 361 359 357 356 354 354 353 351 350 349 351 351 351 351 349 349 348 347 347 347
333 339 339 339 340 343 344 345 348 350 350 351 350 350 352 356 357 358 360 361 362 364 364 365 365 364 364 364 364 364 365 366 366 364 362 362 362 362 362 362 361 359 359 355 356 354 352 353 351 353 355 351 351 349 349 348 347 348 348 350 348 346 347
337 336 335 336 338 342 345 346 347 349 349 349 350 351 354 356 357 357 361 360 360 362 363 364 362 363 364 365 364 364 364 365 365 364 363 362 363 362 360 357 358 355 357 355 355 355 354 353 350 352 351 353 350 349 348 349 347 348 347 348 349 347 346
334 333 336 337 339 342 344 343 342 342 342 346 350 351 352 353 353 352 354 358 359 360 364 364 363 363 363 363 363 363 365 365 366 366 363 363 362 361 358 357 357 354 354 353 355 355 354 351 352 350 350 349 346 347 346 346 345 346 347 346 346 345 343
332 334 336 336 337 339 344 345 343 343 345 350 352 351 351 352 352 352 352 354 355 358 359 361 362 362 363 362 364 364 364 364 365 365 364 363 363 360 358 357 357 354 354 355 353 354 352 351 352 351 350 347 347 345 345 345 344 346 347 346 345 346 345
338 338 339 339 337 337 340 345 345 344 346 352 352 351 350 351 351 351 351 352 353 356 357 359 361 362 364 364 364 364 363 362 365 365 364 362 362 359 357 357 357 357 355 353 355 354 352 353 352 352 350 347 347 347 346 346 347 344 346 346 345 343 344
333 337 338 335 333 334 339 343 344 346 349 351 351 352 350 350 350 351 351 351 353 356 357 358 360 361 365 364 364 364 364 363 363 364 363 360 359 356 355 357 357 356 354 352 354 355 354 354 351 351 350 348 348 348 347 348 347 345 344 345 345 343 342
347 333 334 334 334 336 344 348 351 351 348 349 351 353 352 352 353 352 351 351 353 355 357 358 359 361 364 363 363 364 364 363 363 360 359 357 357 354 354 354 354 355 355 354 355 355 357 357 351 351 350 348 349 348 347 348 347 346 345 345 345 344 344
342 343 342 340 342 344 347 346 350 350 350 352 352 351 353 352 352 351 351 350 351 353 355 356 357 358 360 360 359 360 362 361 361 360 359 357 356 354 353 353 351 353 357 358 356 358 359 358 352 351 350 348 350 349 348 348 348 347 345 345 345 345 343
343 342 342 342 345 345 342 346 347 349 350 352 353 351 352 353 352 351 352 352 353 352 353 355 358 357 358 359 358 359 360 361 359 358 359 358 356 354 353 352 352 353 355 356 357 359 359 356 352 352 350 349 349 348 348 348 348 347 345 343 342 342 341
340 343 341 341 345 347 348 350 349 349 350 349 350 353 353 353 352 352 354 354 354 353 352 356 358 360 357 357 356 359 359 359 359 360 360 359 358 358 355 352 352 353 355 356 356 356 359 355 353 352 349 348 347 347 347 348 348 347 346 343 341 340 340
351 345 347 347 348 348 349 350 350 349 350 352 353 353 354 354 354 353 352 351 352 352 351 353 356 354 354 356 357 360 360 360 362 362 361 360 360 358 356 355 355 356 357 356 354 355 357 355 353 351 350 348 348 347 348 349 347 348 346 343 340 341 341
337 338 344 345 351 349 348 348 350 351 351 354 354 352 352 352 352 352 353 351 352 351 351 353 353 353 354 357 358 361 362 363 364 364 363 360 358 358 357 356 358 360 359 356 355 357 357 356 355 352 350 351 350 350 350 348 345 346 344 341 340 340 340
325 328 335 348 354 358 360 357 358 359 360 359 354 352 349 350 351 350 351 350 350 350 351 352 352 352 352 353 357 361 364 365 366 365 364 362 359 359 359 357 358 359 358 356 355 355 355 353 352 350 349 350 350 349 349 347 346 339 331 334 339 340 340
327 329 327 345 353 353 359 363 366 370 367 361 355 351 349 350 351 352 348 347 347 349 349 353 352 351 350 350 355 361 365 366 367 367 365 363 362 360 359 360 360 358 357 356 356 355 353 351 349 346 345 348 347 346 346 345 341 328 326 329 333 339 341
329 333 335 345 348 350 359 360 362 364 367 363 358 353 349 350 351 351 347 347 346 346 347 354 354 353 352 353 358 365 366 366 367 366 366 365 363 362 361 361 360 359 358 358 358 355 353 349 347 345 345 345 345 343 341 340 331 324 325 327 328 333 342
328 328 344 338 345 355 354 354 357 362 362 361 358 354 352 351 351 351 349 348 348 348 346 355 354 353 353 353 358 366 367 367 368 367 366 366 365 365 364 362 361 361 361 359 358 354 351 348 344 342 344 343 342 339 339 338 327 323 323 325 325 329 337
329 328 330 337 338 344 353 357 354 357 361 361 361 357 355 352 351 352 352 352 352 351 349 355 355 355 353 354 358 362 366 367 368 367 367 366 367 367 364 362 360 359 359 358 357 355 352 349 348 346 346 345 343 342 341 339 323 322 321 323 325 327 333
333 332 338 344 350 346 356 363 363 361 361 357 356 358 358 356 354 355 355 355 354 353 353 354 360 358 357 357 361 367 372 369 370 368 367 368 366 364 363 361 360 359 358 354 354 354 352 351 352 348 346 345 344 343 343 341 321 321 321 322 322 325 331
328 331 332 332 347 350 360 360 362 358 363 360 363 361 358 356 353 351 351 352 356 356 356 357 366 368 363 361 371 373 371 370 370 367 365 364 364 363 361 360 359 358 357 354 353 355 353 351 350 347 345 346 345 343 345 340 319 321 321 321 321 325 336
324 326 328 334 338 355 366 361 364 359 369 369 363 362 360 359 358 356 355 354 355 363 362 362 367 367 369 373 370 370 369 368 366 364 363 363 361 361 360 359 359 358 357 352 350 349 349 349 346 347 345 345 346 344 343 340 322 320 319 320 320 325 340
324 328 330 331 333 350 363 363 365 364 365 367 365 362 363 362 363 362 361 359 362 363 363 366 374 371 370 370 369 368 367 367 365 364 363 362 361 360 360 359 359 358 357 353 349 345 346 348 347 347 346 345 344 342 342 342 325 317 317 319 318 327 340
322 325 327 330 332 343 355 360 359 356 360 362 361 364 367 367 365 365 363 362 363 365 365 369 371 369 369 368 369 369 367 365 364 363 362 361 361 360 359 359 359 359 358 354 352 349 349 347 345 345 345 343 344 343 341 340 329 314 316 315 315 328 341
332 328 328 331 330 332 360 366 366 358 356 359 364 369 370 368 368 367 365 364 366 364 365 368 369 369 369 368 367 367 365 365 364 363 362 361 361 361 360 359 358 357 355 353 352 350 348 347 344 344 344 344 345 345 341 342 334 322 314 313 314 321 341
336 335 334 329 331 341 362 366 363 360 352 357 368 368 370 371 369 367 366 368 367 364 364 370 371 369 367 365 363 362 363 363 362 361 362 362 360 359 357 355 355 353 352 350 349 349 348 346 344 343 342 340 341 342 343 342 336 326 311 312 313 317 324
338 336 337 343 352 353 363 358 362 362 359 369 372 370 371 372 369 369 369 368 367 368 369 372 370 369 367 364 361 360 360 360 361 361 360 360 358 356 353 354 354 350 348 346 348 348 347 348 347 344 344 344 343 347 345 344 339 331 313 312 311 312 314
340 335 337 338 351 357 357 357 356 356 360 365 366 366 371 370 370 370 369 369 368 368 368 367 366 364 362 361 359 357 357 359 360 359 359 357 356 353 351 352 350 349 347 349 347 348 345 346 347 346 344 345 345 345 345 346 341 326 325 312 310 309 311
341 339 334 335 336 355 357 360 361 362 363 361 365 367 368 369 367 367 366 366 369 366 364 363 362 361 358 356 357 356 356 358 357 356 355 353 353 352 351 351 351 351 349 351 348 346 346 345 344 343 340 337 339 340 343 347 345 328 323 320 311 309 309
344 342 341 342 339 350 353 361 362 362 362 363 367 370 370 371 366 363 363 366 365 363 362 362 361 359 357 356 355 356 357 357 356 355 353 352 353 351 349 349 350 349 351 346 346 345 344 343 342 342 343 340 338 339 341 343 342 335 327 320 314 310 308
345 345 346 344 341 342 348 354 357 357 359 363 367 368 367 366 364 361 364 365 362 364 362 360 358 356 355 355 356 356 356 354 354 354 353 352 351 350 350 348 346 346 346 342 340 342 342 342 338 337 338 339 336 336 338 342 339 334 327 321 317 315 310
342 342 343 340 342 351 352 347 344 346 352 355 356 358 360 362 364 364 363 362 361 360 359 356 355 352 353 353 352 353 353 351 349 349 349 348 347 347 347 346 343 343 340 338 336 338 339 337 337 336 334 335 335 335 338 341 339 334 329 327 324 324 318
338 339 340 338 341 340 339 340 341 340 342 343 349 352 354 356 360 360 361 360 360 358 356 353 352 350 350 349 350 349 350 349 349 348 346 345 344 343 343 344 343 340 339 336 337 337 337 336 336 334 333 333 332 334 337 336 338 336 332 330 329 328 326
340 342 342 341 342 347 349 349 350 351 349 349 352 356 356 359 362 361 360 359 357 355 352 349 347 349 348 348 348 347 348 347 347 346 345 344 342 327 327 344 342 340 332 323 327 337 336 337 334 334 331 330 331 331 334 333 335 338 324 333 321 328 328
336 337 340 343 342 344 341 341 343 345 347 349 356 357 359 359 359 358 357 355 354 353 351 350 349 348 347 347 347 346 345 344 344 344 344 338 330 325 318 305 296 314 333 323 312 303 305 316 332 328 335 335 329 328 330 334 336 319 314 312 310 311 313
339 338 341 342 343 344 346 350 351 353 353 354 355 354 354 354 354 356 355 356 353 351 352 351 349 346 345 345 344 342 344 343 342 343 343 339 334 330 327 322 314 296 297 305 303 297 295 294 295 299 304 334 333 319 303 312 309 306 307 305 305 303 302
336 339 341 342 343 346 347 347 349 349 351 353 353 353 352 348 349 354 353 354 352 352 353 351 348 346 344 344 344 343 343 342 342 342 342 340 338 336 334 330 325 318 299 294 298 297 294 294 293 294 297 301 317 322 319 305 301 301 301 300 299 298 297
Wind_Speed
21 20 17 12 13 15 16 17 19 18 16 15 17 19 21 17 16 14 14 16 18 17 17 16 15 14 15 13 12 12 11 11 10 9 9 7 7 8 9 8 8 8 8 8 7 7 6 6 11 10 9 9 7 6 5 5 4 4 4 4 3 2 4
19 19 19 18 17 17 17 18 19 16 16 16 17 19 19 19 16 16 15 16 18 18 18 17 16 15 15 13 11 12 13 12 11 9 9 7 7 8 9 9 9 8 9 8 7 7 7 6 8 8 9 9 8 7 7 6 5 4 4 4 4 3 2
20 21 19 17 18 17 19 19 18 19 20 19 19 20 21 18 17 16 16 17 18 18 17 17 17 16 15 14 13 13 13 13 12 12 11 10 11 11 9 9 9 8 8 7 8 8 9 9 7 6 6 7 7 8 7 7 6 6 5 6 5 5 4
20 21 19 19 18 19 21 20 19 20 21 22 21 22 20 18 17 15 15 17 18 18 19 17 16 16 15 15 15 14 14 13 12 12 12 11 11 10 9 9 8 8 8 10 9 9 9 9 10 7 8 7 7 8 8 8 8 7 6 5 6 6 5
24 22 19 19 18 17 16 17 17 18 22 24 20 18 18 18 17 16 15 17 20 20 19 19 18 16 14 15 13 12 14 14 13 12 12 11 12 11 11 11 10 11 10 10 10 10 10 9 9 7 8 7 8 8 8 7 8 7 6 6 5 6 6
20 22 19 17 16 15 18 20 23 24 24 24 23 19 20 23 21 24 21 18 17 19 17 18 18 16 15 16 14 13 13 13 12 12 12 12 13 12 13 12 12 12 13 12 10 11 10 9 8 9 9 9 9 9 9 9 8 9 8 7 6 6 6
23 23 20 19 18 18 18 18 20 21 20 19 18 17 19 21 23 23 22 21 22 20 21 22 20 18 15 15 14 14 15 15 13 15 13 13 14 13 14 12 12 12 11 10 11 10 10 10 9 10 10 10 10 10 9 9 9 8 8 7 8 6 6
18 18 19 19 18 18 18 18 18 17 15 15 17 20 23 21 21 23 23 21 22 22 21 22 21 17 16 15 14 16 16 16 14 14 13 14 14 14 14 13 13 12 10 12 11 11 11 10 9 9 10 10 10 9 9 9 9 10 7 8 8 8 6
14 20 22 20 19 18 17 16 16 15 15 16 17 17 20 20 22 22 23 22 22 22 23 22 22 18 16 15 15 15 16 16 15 15 15 16 14 17 16 13 13 13 13 12 12 11 10 10 9 10 10 10 10 9 9 9 9 8 8 7 8 8 7
9 19 16 17 16 15 13 13 13 12 13 15 16 16 20 20 19 21 22 22 22 24 24 23 21 19 17 16 16 17 16 16 16 19 19 19 16 18 18 15 14 14 13 13 11 11 10 10 10 10 11 11 10 10 10 9 9 9 9 9 8 8 8
12 11 13 14 13 12 10 12 14 15 16 14 16 17 16 18 19 21 21 22 23 22 23 22 20 20 20 21 22 21 18 19 18 19 20 20 18 21 20 18 17 14 13 13 13 11 11 10 11 11 12 12 12 12 11 10 10 10 9 8 7 7 7
16 13 13 12 10 12 12 13 15 15 14 12 13 16 16 17 18 20 19 22 22 21 21 21 20 21 20 21 21 19 20 19 20 22 22 20 18 20 19 18 16 15 14 15 14 12 11 12 11 11 13 12 12 12 11 10 10 10 10 9 8 7 6
13 12 14 16 14 13 12 9 13 14 15 16 16 16 15 18 19 19 17 19 22 20 20 19 18 17 20 22 22 18 19 20 19 18 18 18 16 15 15 16 17 17 16 15 14 13 11 12 13 12 13 12 11 12 12 11 10 10 9 9 8 8 7
11 14 10 12 11 13 13 12 12 14 16 16 17 18 17 18 18 18 16 19 19 20 21 17 17 17 17 18 18 17 18 19 17 16 16 16 15 15 15 15 15 15 13 14 15 13 12 13 14 12 11 12 11 11 11 10 10 10 10 9 9 8 9
17 16 15 16 15 14 15 15 13 14 15 15 17 18 17 17 17 15 14 16 17 19 21 17 17 18 19 17 17 16 17 16 15 14 14 15 15 15 16 16 15 13 13 13 14 11 12 11 12 12 12 10 10 11 11 11 11 10 11 11 10 9 9
12 16 13 14 12 12 14 15 14 14 14 14 16 18 18 16 16 17 17 17 18 16 17 17 17 17 19 19 17 16 16 16 14 15 15 15 16 16 15 15 15 14 13 14 14 12 11 12 12 11 11 11 12 11 11 10 9 12 18 15 11 11 9
8 8 11 8 12 12 11 11 11 11 14 16 18 19 18 17 18 17 21 20 21 17 15 16 17 18 18 18 17 16 16 15 15 15 16 16 16 14 14 15 14 13 14 13 13 11 10 10 11 9 10 12 13 14 11 10 10 16 17 17 15 11 9
8 8 6 12 13 12 12 13 13 12 12 14 16 18 17 16 16 17 20 19 19 21 17 16 17 18 19 17 16 15 17 16 16 16 15 15 16 15 14 13 13 12 12 11 11 9 8 10 11 12 11 10 12 13 12 11 12 17 17 16 15 12 8
11 13 7 13 10 10 14 16 15 14 16 16 16 16 18 17 16 18 18 17 17 16 17 15 18 18 17 16 15 15 16 15 16 16 15 15 14 12 11 11 11 10 10 8 8 8 8 8 10 12 11 11 12 11 10 10 12 17 17 16 15 14 9
13 15 14 14 15 14 12 10 12 14 15 14 15 19 19 18 18 17 17 16 14 14 16 13 17 17 18 17 16 17 16 17 15 15 15 13 12 10 10 10 11 10 8 7 7 7 7 9 10 10 11 10 10 9 8 9 12 18 18 17 16 15 12
10 13 8 6 10 15 13 12 11 12 13 15 17 15 14 14 15 14 15 15 15 15 15 13 14 17 17 17 16 14 16 14 14 15 13 11 10 10 8 9 10 10 8 7 7 8 8 8 8 7 8 8 8 8 8 7 16 18 19 17 17 16 13
15 14 13 10 7 10 13 15 14 16 15 14 12 14 16 17 19 20 21 20 17 15 15 14 11 16 16 16 13 12 13 12 12 11 11 10 9 8 8 9 10 10 8 7 6 6 6 7 7 8 8 8 8 8 8 6 18 17 19 18 17 17 8
24 20 15 11 8 12 11 15 16 15 11 12 14 15 17 18 19 19 19 19 17 14 15 14 12 15 15 12 12 12 12 12 13 13 10 10 9 9 8 9 9 8 6 7 6 7 7 7 8 7 8 8 8 7 6 6 15 18 19 18 18 11 6
17 14 11 10 14 14 14 13 13 12 13 15 15 17 15 17 17 15 15 17 15 15 15 13 10 12 13 11 12 12 12 11 13 13 12 10 10 8 7 7 6 5 5 6 7 8 6 7 6 7 9 10 10 9 8 7 12 19 19 18 16 13 8
22 21 16 14 11 11 14 12 13 13 13 14 18 15 14 14 15 15 15 16 16 15 16 13 12 13 13 13 11 11 11 11 11 11 11 10 8 8 7 8 6 5 5 6 6 7 6 6 6 7 7 10 8 9 10 8 11 16 16 16 16 12 7
9 10 16 16 18 13 6 11 10 11 13 14 13 14 14 15 14 15 15 15 16 17 17 15 14 15 14 13 12 11 11 10 11 10 9 9 8 8 7 8 7 9 8 8 7 7 7 7 6 6 6 6 8 9 10 7 7 11 16 16 16 15 8
11 6 8 12 12 12 7 10 12 12 15 13 12 13 13 14 15 14 13 13 14 16 16 14 14 15 15 14 14 13 12 10 11 11 9 9 9 9 9 8 8 9 10 10 9 7 7 7 6 6 6 6 8 7 6 6 9 10 13 14 15 17 11
8 14 10 4 7 5 7 11 11 11 13 9 11 11 12 13 13 12 12 13 14 13 13 13 16 13 14 14 14 13 11 11 9 9 9 8 8 8 7 6 5 6 8 7 5 5 6 4 3 4 4 5 7 4 6 7 13 9 14 16 15 15 14
5 1 5 10 6 1 9 9 11 13 12 12 15 14 12 14 13 12 12 13 12 12 13 15 15 15 14 13 13 12 11 10 10 9 8 9 9 8 8 7 7 6 6 4 7 6 8 6 4 3 4 4 6 5 5 6 10 16 12 14 14 15 15
4 4 3 5 8 4 7 6 7 9 9 12 12 11 12 12 13 12 12 12 11 14 15 15 14 14 14 13 13 13 13 13 13 11 11 12 11 11 10 7 6 6 6 3 5 7 6 6 6 5 6 6 5 5 5 6 5 11 15 13 14 14 14
11 10 10 9 7 6 11 5 7 7 9 9 8 8 10 12 14 16 13 12 13 13 14 14 14 14 14 15 14 12 11 12 11 10 10 9 9 9 9 9 8 7 4 5 4 6 5 5 3 3 2 6 6 5 7 6 6 5 6 10 11 10 9
12 9 8 6 5 13 14 10 10 12 10 11 13 13 13 12 14 17 15 14 13 13 14 14 14 13 13 12 10 9 11 11 10 8 8 9 8 9 9 9 8 7 6 6 6 6 6 5 4 5 4 4 6 6 7 8 7 5 5 5 7 6 8
11 12 11 10 14 10 3 4 5 6 9 13 13 12 12 15 14 16 14 15 13 14 14 14 14 13 12 11 11 11 11 11 9 9 8 7 7 8 8 7 6 7 7 7 7 7 7 6 6 6 5 5 5 6 8 9 7 7 6 6 6 5 5
9 7 5 3 6 6 10 12 13 12 10 7 9 8 10 9 14 15 16 16 16 15 14 13 13 13 13 14 12 11 11 10 12 12 8 7 8 8 8 6 5 7 8 7 7 7 6 7 7 7 6 7 6 5 7 8 7 7 7 7 6 6 5
5 5 7 5 3 2 8 9 9 8 9 8 6 10 12 13 14 15 15 14 15 14 15 13 13 13 14 12 12 11 8 9 10 10 9 8 6 7 5 1 7 8 5 7 5 1 7 7 6 8 8 8 8 7 8 7 9 7 8 9 10 9 8
3 6 5 7 9 12 17 14 11 12 12 5 8 10 13 14 13 13 15 15 14 14 14 13 13 14 13 12 12 12 10 9 9 9 10 8 7 7 7 9 12 8 7 5 6 10 12 9 3 1 2 4 5 3 3 7 7 14 17 15 15 14 13
6 7 6 10 12 11 12 12 11 9 10 7 7 10 10 11 13 13 13 12 13 14 13 12 10 11 12 11 12 10 10 11 9 9 8 10 8 8 9 6 10 17 17 12 8 9 11 11 10 11 10 4 4 5 11 10 17 16 15 15 14 12 10
7 7 9 10 11 12 14 14 12 11 9 7 7 8 8 11 11 10 13 12 12 11 11 11 10 10 11 11 11 11 9 9 9 10 9 8 8 8 8 7 7 7 12 12 12 12 12 13 12 12 12 11 6 5 5 9 11 15 15 14 13 12 11
Wind_Direction
198 195 190 188 194 192 187 186 188 195 199 200 190 189 195 198 196 187 187 181 180 181 182 180 180 180 183 185 183 179 181 180 181 182 183 178 175 152 159 173 169 169 169 176 174 176 169 182 166 173 166 161 165 159 142 147 174 150 149 157 148 208 168
190 187 187 187 194 199 197 192 192 189 196 203 193 188 194 198 194 191 187 180 180 182 180 181 180 182 182 182 181 178 181 182 179 177 177 174 163 157 168 173 173 176 166 177 161 160 169 200 173 177 165 158 158 157 151 162 162 168 168 164 174 173 193
184 181 181 184 191 196 198 199 193 193 197 204 193 188 193 194 193 191 183 180 179 181 181 183 182 181 179 180 181 182 181 181 177 175 175 176 169 173 173 171 173 171 160 152 166 169 185 186 189 174 165 157 160 152 160 161 170 172 178 172 179 171 181
181 177 181 186 192 193 193 196 191 189 195 202 198 194 190 189 190 191 187 183 178 180 181 181 181 180 179 179 182 183 183 182 179 176 178 177 175 174 177 168 174 168 163 170 177 180 186 187 182 175 171 164 160 158 166 174 172 180 186 185 173 172 179
169 176 181 185 192 190 191 191 189 190 198 204 200 190 187 186 186 189 187 185 183 182 181 180 182 184 181 180 182 184 183 181 178 177 179 177 176 172 180 176 176 177 177 176 182 187 190 183 176 173 170 160 159 162 173 177 171 172 185 193 175 173 184
162 171 173 184 187 187 188 194 197 198 202 203 198 186 186 189 192 194 193 186 186 183 180 181 185 182 182 182 182 181 180 180 179 178 181 178 175 174 178 180 179 178 183 187 188 188 183 184 174 175 168 168 172 173 178 179 180 176 180 181 189 183 190
170 169 180 181 186 184 182 188 193 201 204 202 199 190 191 193 194 194 194 191 188 184 183 185 187 183 183 182 182 179 179 179 180 180 183 181 176 177 182 181 183 185 187 185 194 187 183 184 184 172 172 175 179 183 182 180 184 182 173 180 185 189 194
168 171 165 175 178 175 181 184 190 197 194 193 200 197 195 193 193 194 194 192 189 187 187 187 187 184 181 182 181 180 179 182 180 182 184 184 179 182 184 185 182 186 185 194 190 189 188 183 183 170 172 177 181 183 183 183 182 178 176 179 182 191 194
175 168 174 176 174 178 178 175 178 182 184 185 197 197 194 193 194 193 193 191 190 188 188 189 188 184 178 180 181 181 178 181 183 184 185 187 182 187 185 184 184 186 190 196 191 191 189 183 180 172 174 177 180 184 185 183 178 176 181 182 185 190 193
162 173 171 169 175 171 161 161 162 164 181 190 194 194 189 193 193 191 191 192 190 191 188 189 187 183 176 178 182 181 180 184 184 189 191 192 189 190 191 188 188 191 195 194 192 190 189 181 178 174 176 179 178 181 185 184 179 179 182 183 183 187 192
147 164 157 157 163 150 145 153 153 169 185 189 193 193 186 187 194 192 190 190 190 190 189 190 186 184 180 181 185 187 185 185 187 190 194 195 194 195 195 192 192 194 193 187 193 188 186 180 176 176 179 181 178 180 184 185 180 179 180 181 183 183 190
144 142 151 154 157 140 162 176 177 182 184 186 191 192 186 186 188 194 191 191 189 189 189 189 187 185 182 184 187 188 187 187 191 194 195 195 197 196 195 196 194 193 193 194 193 189 186 181 180 180 181 182 180 181 184 184 181 180 181 184 181 185 192
147 149 159 161 159 161 174 179 179 186 187 189 194 194 186 184 188 194 192 189 189 188 188 188 184 180 183 186 190 188 190 191 194 193 192 195 194 193 197 201 199 198 193 192 193 189 179 176 180 181 182 183 179 183 186 184 180 177 178 180 180 186 194
152 152 161 157 163 166 175 189 195 186 188 192 192 191 187 185 189 195 190 188 190 186 188 187 181 181 184 189 190 186 188 193 194 194 193 194 192 193 199 200 201 199 193 193 197 194 173 171 182 181 182 182 182 182 184 182 178 178 179 180 182 186 192
154 163 165 169 166 173 179 190 194 197 197 194 188 187 185 185 189 191 190 190 193 190 189 183 179 180 184 185 188 187 189 191 192 194 193 193 195 194 198 199 200 198 195 196 200 194 183 161 168 168 176 178 180 181 182 184 184 181 181 182 185 190 192
210 199 179 151 153 167 177 182 189 192 191 186 184 184 185 185 187 190 190 189 191 198 187 179 181 181 182 184 188 186 187 188 189 191 192 193 197 199 196 196 199 199 201 204 205 196 180 175 171 166 170 180 182 180 184 187 189 185 182 182 186 188 187
224 202 195 146 157 174 180 177 169 170 174 177 182 185 187 186 188 190 194 193 194 197 190 178 179 180 183 187 187 186 184 185 188 190 193 194 195 198 197 197 196 198 203 207 212 202 179 172 172 148 182 189 184 183 186 189 192 182 182 183 187 189 191
231 259 197 159 178 183 178 175 172 178 179 180 183 186 188 188 186 186 194 194 195 195 195 180 176 178 183 183 182 181 183 185 185 189 193 192 196 197 198 196 193 196 200 201 193 184 171 170 162 170 188 190 193 188 186 190 186 178 182 183 187 193 191
231 249 193 186 191 176 181 181 178 183 189 188 186 186 190 188 186 188 190 195 195 190 195 178 176 177 180 180 179 179 182 182 185 187 189 192 193 195 194 191 186 183 178 156 148 152 169 168 171 185 188 188 194 193 189 194 176 176 178 181 188 198 201
217 233 217 192 189 194 192 187 185 188 188 191 190 193 192 189 189 189 190 193 191 191 198 182 180 178 181 182 182 183 184 183 184 184 187 185 181 173 165 168 182 190 184 180 160 167 171 179 185 193 195 186 190 193 190 202 166 176 176 181 189 199 206
217 225 222 197 166 173 177 181 185 180 186 193 197 195 192 189 189 184 188 191 194 194 195 194 177 179 180 181 180 174 168 169 170 176 172 165 160 148 145 167 182 186 179 179 167 178 181 173 177 177 175 176 181 191 188 192 164 171 176 182 191 199 203
236 230 227 236 192 171 167 178 176 183 185 191 188 186 191 193 194 194 194 195 196 193 193 193 173 171 175 177 166 151 154 151 153 148 149 144 138 146 164 171 181 179 170 165 160 158 165 172 174 168 176 178 179 188 191 161 165 169 178 184 192 194 192
233 235 238 236 217 176 178 174 175 184 177 183 191 189 192 195 196 197 194 194 194 187 188 187 176 173 168 155 150 148 153 155 156 154 139 135 148 167 173 172 176 173 163 179 177 166 171 174 176 162 173 183 184 183 183 146 176 173 180 185 188 178 188
245 241 240 243 231 188 172 173 174 179 178 185 194 195 194 194 193 192 191 191 186 182 184 175 153 159 155 148 149 150 145 146 154 155 151 153 163 173 177 179 172 177 158 179 190 197 182 171 183 171 184 184 184 180 178 165 178 183 184 184 176 178 180
238 236 246 257 259 189 173 172 179 181 187 190 197 196 190 189 190 187 189 188 181 176 179 163 150 153 150 142 143 146 140 135 132 140 150 155 162 168 176 188 183 178 162 188 196 208 199 183 191 186 181 186 174 172 173 186 174 185 176 177 175 179 183
249 214 224 236 246 254 174 156 157 179 193 200 196 192 187 185 182 181 184 185 176 174 176 161 150 147 148 142 140 144 139 140 140 143 150 150 157 165 167 165 170 173 167 180 195 201 211 206 202 183 162 159 167 185 191 166 130 174 176 170 174 183 182
320 250 200 222 247 249 153 150 162 182 199 200 196 192 182 175 175 174 179 175 172 173 172 148 137 139 141 139 138 136 137 139 147 148 148 150 160 175 171 171 170 169 172 179 183 179 188 205 202 158 169 176 191 186 177 134 139 158 170 174 175 191 189
2 352 334 299 313 287 151 160 163 185 197 187 187 187 170 165 164 165 165 166 165 159 151 131 137 140 138 134 136 140 140 143 148 152 147 147 152 164 158 156 164 157 157 178 151 158 155 129 151 178 173 198 153 172 147 154 146 155 177 182 187 189 198
89 257 356 329 329 120 144 166 172 191 194 185 188 181 162 155 148 148 151 153 152 148 130 129 130 133 134 137 136 137 143 145 147 143 146 150 151 140 137 162 171 152 139 164 165 156 136 147 165 177 195 137 146 146 163 147 137 158 175 190 188 191 199
106 69 63 281 295 324 216 185 177 179 190 182 177 169 163 149 143 144 147 149 138 129 127 126 128 129 132 135 138 147 155 151 150 146 144 150 151 153 155 149 129 126 154 102 125 134 144 155 178 200 174 153 145 155 116 113 116 163 168 180 193 197 200
24 18 355 338 305 224 228 193 166 179 173 171 167 139 130 130 136 128 123 124 123 126 126 127 130 135 138 144 151 152 139 133 136 139 139 146 145 141 136 136 139 131 130 135 125 116 129 139 182 221 156 139 153 144 131 125 131 123 152 169 181 182 181
23 20 34 348 288 274 253 204 190 172 122 100 105 113 120 121 124 121 119 120 119 125 127 130 129 132 137 135 122 117 123 123 118 121 130 138 133 128 133 133 137 143 160 149 140 137 147 165 176 184 201 180 164 162 147 139 130 130 137 140 158 167 174
34 26 20 360 332 335 23 54 60 67 117 120 110 108 109 118 116 114 117 112 114 119 123 124 126 127 126 118 111 111 118 124 132 134 133 127 120 121 125 131 137 150 161 161 155 156 158 176 183 180 193 199 178 177 153 147 147 146 150 154 155 162 148
46 62 66 344 290 67 56 47 60 49 34 49 86 89 89 88 109 115 117 123 125 121 119 122 125 123 122 123 124 128 133 136 138 137 135 134 134 137 138 136 172 164 177 174 164 157 166 184 184 181 183 189 190 191 148 156 150 153 159 160 163 160 152
97 118 113 99 314 102 93 93 78 98 97 82 113 121 127 125 118 115 111 112 116 118 116 115 114 117 122 126 127 131 129 134 140 137 135 134 101 53 33 143 208 158 94 26 23 106 181 182 177 190 186 193 191 190 158 164 163 172 161 164 167 165 166
105 55 86 107 73 65 70 55 48 48 55 38 87 93 97 100 107 109 112 115 117 118 117 120 126 129 133 135 141 143 143 149 153 138 143 119 117 112 98 63 47 37 103 107 46 47 43 66 112 63 358 82 49 25 172 168 162 142 157 163 169 166 167
50 78 59 85 101 91 95 111 118 116 105 96 81 89 100 109 116 114 111 112 120 124 127 131 133 136 136 143 148 147 159 155 156 151 142 139 138 128 126 106 54 51 55 70 67 51 55 62 61 46 29 9 102 52 15 99 127 142 155 146 139 135 140
32 56 65 67 68 71 76 76 76 80 84 92 98 99 102 108 109 108 115 119 120 127 131 136 140 146 149 151 143 144 148 166 161 163 149 134 136 140 133 119 109 78 52 59 70 63 56 48 43 40 39 28 59 112 57 52 96 120 124 125 124 127 127